Weather in Novotroitske

Ukraine / Zaporizhia Region     47°47′21″N   35°43′57″E
temp.,
°C
wind,
m/s
gust,
m/s
humid.,
%
clouds,
%
prec.,
mm/h
press.,
hPa
HPBL,
m
2 march, tue
tue223:000nnw23790 0.0 102938
02:000nw238116 0.0 102964
05:00−1wnw238355 0.0 102864
08:00+1w467745 0.0 1028387
11:00+4wsw78636 0.0 1026867
14:00+4wsw8116653 0.0 1023868
17:00+3wsw81473100 0.0 1021754
20:00+3w6128193 0.0 1020685
3 march, wed
wed323:00+1wnw61084100 0.0 1018603
02:00+1nw61197100 0.4 1019652
05:00+2nnw71179100 0.1 1020925
08:00+1nnw7107793 0.1 1023724
11:00+4nnw796042 0.0 10241193
14:00+6nw7105033 0.0 10241527
17:00+4nw485524 0.0 1024378
20:00+2wnw366812 0.0 1026115
4 march, thu
thu423:000w33800 0.0 102656
02:000wsw35780 0.0 1025112
05:00−1sw48860 0.0 1023188
08:00+2sw510700 0.0 1022423
11:00+7wsw811550 0.0 10201026
14:00+8wsw812540 0.0 10171168
17:00+7sw613728 0.0 1015614
20:00+5sw8157943 0.0 1015636
5 march, fri
fri523:00+3sw7158674 0.0 1014590
02:00+2sw7149170 0.0 1014524
05:00+2sw5129366 0.0 1013417
08:00+3sw699182 0.0 1013390
11:00+7sw6880100 0.0 1013599
14:00+10sw6969100 0.0 1012952
17:00+9ssw4107388 0.0 1010333
20:00+5ssw598378 0.0 1011215
6 march, sat
sat623:00+5sw5119394 0.0 1011301
02:00+4wsw239896 0.0 1011112
05:00+4nnw4894100 0.2 1013391
08:00+1n6895100 0.4 1015460
11:00+3n5767100 0.1 1016974
14:00+4n6847100 0.1 10171341
17:00+2nnw5853100 0.0 10181377
20:000nnw71155100 0.0 1021894